GFSSGP_prec_cloud_003.txt.gz
Cloud_Cover
93 31 88 100 99 100 90 6 15 5 15 4 5 0 0 0 1 5 0 3 4 20 4 0 0 0 0 0 0 0 4 0 0 0 0 0 0 0 0 0 0 0 0 0 0 1 3 0 0
5 33 12 86 92 75 64 5 5 51 6 4 28 0 0 0 0 2 1 0 2 2 0 1 0 0 0 0 0 0 0 0 0 0 0 0 0 0 0 0 0 0 0 0 5 12 6 4 9
5 86 100 100 100 100 36 4 5 97 5 3 5 5 5 0 3 5 5 0 0 2 1 0 0 0 0 0 0 0 0 0 0 0 0 0 0 0 0 0 0 4 1 0 0 2 15 17 5
28 12 100 100 100 100 100 5 88 44 5 4 5 5 4 4 1 0 0 0 0 5 1 0 0 0 5 0 0 0 0 0 0 0 0 0 0 0 2 72 93 56 60 3 1 1 5 11 14
62 60 42 91 79 100 100 10 5 5 5 5 5 5 5 5 5 0 1 5 5 5 4 0 0 0 0 0 0 0 0 0 0 0 0 0 0 1 4 84 91 100 92 87 99 6 0 96 99
5 5 3 10 86 53 23 5 5 5 5 5 5 26 8 8 8 4 5 5 5 8 5 4 3 2 0 0 0 0 0 0 0 0 0 0 0 6 0 4 22 96 98 100 100 100 5 6 60
8 5 34 72 100 96 52 5 5 5 5 5 5 5 5 43 48 5 3 5 45 53 5 5 5 1 0 0 0 0 0 0 0 0 0 0 0 0 0 5 5 94 100 100 100 100 17 5 91
60 6 97 94 100 100 51 8 0 4 5 5 5 5 5 5 88 5 5 51 96 50 97 46 25 0 0 0 0 0 0 0 0 0 0 0 0 0 0 0 5 10 82 100 51 5 5 3 0
70 8 100 100 100 99 6 3 3 5 5 30 0 5 5 5 2 4 5 99 84 18 96 100 5 0 0 0 0 0 0 0 2 0 0 0 0 0 0 0 0 0 0 0 5 4 1 0 0
6 19 98 100 97 14 65 5 56 5 13 100 4 5 5 5 5 6 26 82 74 97 87 6 5 3 2 0 0 0 0 0 0 0 0 0 0 0 0 0 0 0 0 13 25 23 4 5 11
71 99 49 100 100 32 11 69 82 66 96 20 68 48 5 5 5 5 50 75 91 44 5 9 43 5 0 0 0 0 0 0 0 0 0 0 0 0 0 0 0 0 0 0 0 0 0 6 36
24 95 5 65 55 5 18 90 100 52 96 47 34 6 5 5 6 5 28 10 5 5 5 56 15 5 3 0 5 0 0 0 0 0 0 0 0 0 3 0 5 2 0 0 0 1 0 0 6
3 3 3 5 5 10 95 94 93 100 98 100 22 5 16 3 14 25 89 49 4 2 4 30 5 3 5 5 5 5 0 0 0 0 0 0 2 18 18 10 8 9 5 5 5 24 38 5 16
5 5 5 4 58 91 24 100 22 100 99 33 5 4 5 5 12 100 83 14 0 0 80 56 4 26 5 5 5 5 0 0 0 0 0 0 0 2 15 14 6 5 5 85 46 5 2 5 8
6 25 6 28 100 27 100 100 83 88 100 7 5 0 1 95 100 60 48 0 0 0 20 94 92 3 0 0 2 0 0 0 0 0 0 0 0 3 34 42 40 23 74 75 68 5 0 5 5
85 100 100 100 100 100 100 100 52 86 35 5 3 28 100 100 100 32 5 0 0 0 0 0 0 0 0 0 0 0 0 0 0 0 0 0 4 29 62 71 61 79 82 28 5 5 5 2 6
100 97 76 92 100 100 89 0 97 26 4 5 100 100 100 100 55 4 0 0 0 0 0 0 0 0 0 0 0 0 0 0 0 0 0 0 17 52 76 100 100 100 81 62 8 33 16 3 10
19 1 0 0 61 92 20 7 29 40 92 100 100 100 57 66 2 0 0 0 0 0 0 0 0 0 4 0 0 0 0 0 0 0 0 4 29 60 98 99 100 100 96 81 100 74 6 5 5
0 0 0 0 1 5 35 11 98 100 100 100 100 9 0 0 0 0 0 0 0 0 0 4 5 5 5 0 0 0 0 0 0 0 0 10 31 20 78 68 100 100 100 98 76 92 10 5 5
3 0 0 0 0 15 5 1 0 0 100 38 28 0 5 5 5 0 5 0 0 0 0 5 5 5 5 0 0 0 0 0 0 0 0 34 14 40 61 71 90 98 100 100 100 99 45 5 5
4 0 3 18 36 5 5 1 0 0 0 0 0 3 5 0 0 5 1 0 0 2 45 5 5 5 0 0 0 0 0 0 0 0 3 17 5 6 58 46 36 100 99 71 37 40 34 19 4
5 94 8 29 21 3 5 0 0 0 0 2 14 5 4 0 5 2 0 0 0 1 1 0 5 4 0 0 0 0 0 0 0 0 11 18 5 53 78 98 53 29 6 4 7 8 14 0 0
8 46 19 5 0 0 0 0 21 0 44 100 32 0 4 6 44 0 0 0 0 0 0 5 1 0 0 0 0 0 0 0 0 0 20 54 86 24 75 6 5 3 0 5 0 5 5 0 0
65 30 0 0 0 0 0 0 100 96 58 12 2 88 6 49 0 0 0 0 0 0 0 0 0 0 0 0 0 0 0 0 0 3 4 30 46 71 7 4 5 4 0 4 5 5 4 5 10
1 7 42 1 0 0 4 25 100 34 44 53 98 15 60 0 2 4 0 0 0 0 0 0 0 0 0 0 0 0 0 0 2 5 5 25 48 20 5 1 5 0 4 2 5 4 27 100 100
95 70 41 4 1 2 0 95 100 10 2 96 58 6 5 8 7 0 0 0 0 0 0 0 0 0 0 0 0 0 0 0 5 8 5 5 13 0 0 1 3 0 0 0 2 88 100 100 100
30 2 86 0 0 11 62 94 100 2 65 68 11 62 13 13 5 0 0 0 0 0 0 0 0 0 0 0 0 0 0 5 5 5 5 5 0 0 0 0 0 0 0 88 99 100 100 100 100
0 0 0 0 1 100 100 99 100 24 95 13 100 100 87 5 1 0 0 0 0 0 0 0 0 0 0 0 0 0 0 4 0 5 5 5 0 0 0 2 5 5 6 85 100 100 100 100 100
0 0 0 2 99 100 100 100 14 100 2 91 100 87 30 13 3 0 0 0 0 0 0 0 0 0 0 0 0 0 0 20 7 5 5 5 3 0 0 0 3 5 5 74 99 100 92 85 86
0 0 0 0 100 100 100 80 6 77 5 100 100 69 45 92 1 5 0 0 0 0 0 0 0 0 0 0 0 0 11 6 61 6 5 5 5 9 44 3 7 39 47 99 100 78 100 100 100

GFSSGP_prec_cloud_006.txt.gz
Cloud_Cover
95 57 79 39 5 55 72 62 98 87 24 10 5 4 10 0 4 2 5 5 4 5 9 8 5 7 5 0 0 0 0 0 0 0 0 0 0 0 0 0 0 0 0 0 0 2 24 0 0
65 92 82 8 46 10 82 6 5 4 12 3 5 15 38 2 5 5 5 5 0 1 7 5 5 4 5 0 0 0 0 0 0 0 0 0 0 0 0 0 0 0 0 0 0 6 21 25 4
70 29 50 5 5 48 87 18 5 5 5 4 4 86 6 5 5 5 5 0 5 0 1 1 2 1 0 0 0 0 0 0 0 0 0 0 0 0 0 0 0 0 0 0 0 1 7 19 12
100 75 72 44 5 32 100 99 75 5 5 5 24 22 8 3 5 9 5 5 0 0 0 2 3 0 2 0 0 0 0 0 0 0 0 0 0 0 0 0 0 0 0 0 0 8 10 0 0
79 17 37 99 33 51 9 29 6 4 5 2 5 43 25 4 17 11 5 5 0 0 0 4 5 4 2 0 0 0 0 0 0 0 0 0 0 0 0 0 0 4 5 5 31 6 5 5 0
49 100 48 37 6 51 52 5 5 3 5 15 78 52 4 5 11 42 5 0 5 4 1 5 6 5 3 0 0 0 0 0 0 0 0 0 0 0 2 8 8 4 9 17 37 82 20 5 49
100 95 100 100 98 100 31 30 15 100 100 100 94 5 5 35 69 30 5 4 5 5 5 5 25 5 8 0 0 0 0 0 0 0 0 0 0 0 0 0 0 1 0 3 21 37 100 91 58
99 98 100 100 100 100 68 33 85 100 100 100 4 4 9 65 7 5 31 3 5 5 5 47 28 5 1 0 0 0 0 0 0 0 0 0 2 0 0 0 0 0 0 5 5 5 6 32 100
74 20 89 100 100 100 47 12 83 11 82 100 2 5 5 18 5 5 5 5 5 5 27 81 5 5 5 0 0 1 0 0 0 0 0 0 0 0 0 0 0 0 0 0 4 7 71 77 85
96 83 100 100 71 92 95 15 51 7 71 100 6 5 3 5 1 5 5 5 5 64 94 32 5 5 5 5 5 0 0 0 0 0 0 0 0 0 0 0 0 0 0 0 2 0 1 3 49
80 46 63 91 81 100 16 53 23 86 100 100 7 5 80 5 5 4 5 5 5 94 86 5 5 5 5 5 5 1 0 1 0 0 0 0 0 10 5 18 21 19 15 0 0 25 24 92 90
21 56 60 85 100 92 78 18 99 87 69 100 44 100 86 5 5 5 5 5 5 5 68 5 5 5 15 5 1 0 0 5 0 0 0 0 3 30 28 20 29 96 22 1 17 54 98 51 68
8 7 5 45 59 49 90 59 90 87 86 100 20 100 29 5 5 5 1 5 5 81 100 7 1 4 22 5 0 2 1 0 0 0 0 0 1 16 63 79 97 100 98 58 43 88 79 100 100
100 85 5 45 89 58 34 14 38 96 100 69 20 100 30 5 5 3 4 5 93 100 90 1 3 5 4 5 0 0 0 0 0 0 0 0 0 20 81 95 98 5 100 80 97 48 97 78 93
2 8 12 50 100 100 97 27 95 88 100 63 5 12 9 5 5 5 51 100 100 100 0 0 0 10 5 0 0 0 0 0 0 0 0 0 0 38 58 14 94 60 49 92 34 26 59 45 43
5 11 52 96 91 100 100 97 100 99 70 5 6 6 8 92 99 73 94 100 100 5 0 0 4 3 0 0 0 1 0 0 0 0 0 1 25 81 46 57 86 100 96 82 68 92 43 94 68
0 10 3 6 49 100 46 62 96 59 82 28 2 16 99 100 100 100 100 100 77 0 0 0 0 0 0 0 0 4 0 0 0 0 0 0 24 31 49 79 50 84 10 100 100 78 77 56 82
1 2 0 1 11 5 0 1 28 5 26 0 0 51 100 100 100 100 100 100 1 2 0 0 0 0 0 2 0 0 0 0 0 0 0 0 32 39 91 86 53 39 100 64 99 31 61 57 96
0 5 5 5 0 4 69 1 0 1 5 0 0 0 80 100 100 22 20 0 5 0 0 0 0 5 5 5 5 1 0 0 0 0 0 3 42 34 100 98 94 95 53 43 99 97 90 85 67
5 6 0 0 0 62 7 4 0 0 0 0 0 0 13 3 0 0 0 3 0 0 0 0 5 5 48 3 1 1 0 0 0 0 9 20 42 53 71 85 68 59 16 26 33 94 100 93 98
0 0 3 26 53 74 1 0 0 0 0 0 0 0 0 0 0 0 4 10 0 0 0 16 63 58 30 0 2 0 0 0 0 0 2 47 48 52 48 73 79 56 22 60 86 97 100 91 90
0 0 94 38 27 5 81 4 0 0 0 0 0 0 0 0 0 6 98 5 0 0 0 1 2 1 4 0 0 0 0 0 0 0 2 9 64 70 55 40 77 31 19 30 44 52 39 23 37
0 99 50 5 5 47 5 1 0 0 0 5 0 0 0 0 14 100 53 1 0 0 0 0 0 3 0 0 0 0 0 0 0 0 6 44 76 46 48 48 42 30 34 6 29 52 69 22 6
0 4 11 3 4 2 73 4 95 0 0 0 0 0 1 53 98 84 21 0 0 0 0 0 0 0 0 0 0 0 0 0 1 5 30 100 32 44 48 25 17 31 24 28 17 15 24 45 23
0 2 0 0 0 16 37 1 92 0 26 4 58 5 9 97 99 53 0 0 0 0 0 0 0 0 0 0 0 0 0 0 5 6 36 77 79 35 4 18 8 17 14 15 11 50 55 26 20
0 0 0 5 1 4 0 9 100 4 97 100 57 26 100 100 61 1 0 0 0 0 0 0 0 0 0 0 0 0 3 5 7 0 5 43 36 15 0 2 15 13 81 99 100 100 100 100 100
0 0 3 29 0 19 72 58 100 96 100 62 14 100 100 84 5 4 0 0 0 0 0 0 0 0 0 0 0 1 11 4 4 4 4 11 26 0 11 14 13 16 31 100 84 88 100 100 100
0 0 18 1 7 71 96 100 100 100 48 96 100 98 55 21 14 1 0 0 0 0 0 0 0 0 0 0 0 15 1 8 6 0 2 10 2 0 0 10 26 26 100 72 74 100 100 100 100
0 0 0 0 8 100 100 100 100 99 86 97 100 100 100 99 5 1 0 0 0 0 0 0 0 0 0 0 11 39 6 11 16 10 7 0 0 0 1 0 6 99 100 56 84 92 100 100 100
0 0 0 0 96 100 100 100 100 93 100 94 87 86 100 5 5 5 0 0 0 0 0 0 0 0 0 0 13 46 5 32 29 36 28 5 5 2 5 5 5 100 100 100 95 100 100 100 100

GFSSGP_prec_cloud_009.txt.gz
Cloud_Cover
100 100 100 100 94 59 55 30 40 5 18 88 100 100 33 5 5 3 5 4 5 4 5 6 5 8 1 2 0 0 0 0 0 0 0 0 0 0 0 0 0 0 0 0 0 4 0 0 0
100 100 100 100 84 100 100 90 30 71 8 4 5 5 3 5 5 3 5 5 5 5 2 5 5 5 2 5 0 1 0 0 0 0 0 0 0 0 0 0 0 0 0 0 0 0 11 0 0
100 100 76 100 100 100 100 39 100 51 5 17 40 31 5 5 4 4 5 5 5 5 0 5 5 2 4 4 0 0 0 0 0 0 0 0 0 0 0 0 0 0 0 0 6 0 6 20 1
62 50 100 100 100 100 83 97 78 10 86 100 100 92 77 2 2 5 12 5 12 3 0 5 2 2 5 5 2 4 0 0 0 0 0 0 0 0 0 0 0 0 0 3 0 0 0 0 1
100 100 29 98 100 100 100 94 73 77 70 29 86 64 5 47 100 42 5 5 5 4 0 5 5 5 5 5 0 0 0 0 0 0 0 0 0 0 0 0 2 1 0 0 0 0 0 0 0
100 100 100 55 80 100 97 76 91 5 59 22 56 54 77 100 100 38 11 15 5 5 4 5 4 5 5 4 0 0 0 0 0 0 0 0 0 0 0 1 1 2 0 6 4 40 0 0 5
100 95 100 100 100 98 100 100 87 8 60 99 72 10 100 84 96 86 59 59 5 5 9 5 5 5 5 1 5 0 0 0 0 0 0 0 0 0 6 0 2 0 0 0 0 2 5 0 30
100 100 100 100 100 100 100 100 98 100 45 94 67 25 22 39 2 16 88 45 5 34 5 1 5 5 5 5 1 0 0 0 0 0 0 0 0 0 0 0 0 0 0 0 0 0 4 1 0
100 90 100 100 100 100 100 100 84 52 100 100 98 6 38 2 0 45 100 4 5 17 5 4 5 5 5 5 1 4 0 0 0 0 0 0 0 0 0 49 0 0 0 0 0 0 0 0 0
70 82 100 100 100 100 100 100 100 100 100 49 25 20 13 45 25 50 49 5 0 5 5 2 5 5 5 5 5 4 0 0 0 0 0 0 0 0 0 6 0 0 0 0 0 0 0 0 0
98 100 100 100 100 100 100 99 95 100 99 88 41 39 5 5 41 60 6 5 5 5 61 4 1 5 7 5 1 4 0 0 0 0 0 0 0 0 0 7 25 14 70 6 41 4 1 87 85
42 29 82 96 92 91 100 100 100 100 100 31 79 15 2 5 62 66 5 44 5 5 5 1 5 5 63 5 0 0 0 0 0 0 6 0 0 6 2 0 41 100 71 98 72 99 100 98 87
11 99 50 23 56 23 20 30 5 59 69 99 15 73 6 23 96 34 98 52 5 10 5 5 13 94 46 5 1 0 0 0 0 0 0 0 0 0 0 30 80 5 90 18 88 100 100 100 96
94 6 12 73 5 5 15 10 5 96 100 99 79 20 73 91 91 52 98 91 55 55 74 7 38 100 49 4 0 0 0 0 0 0 0 0 0 0 0 11 58 70 49 26 68 64 100 50 100
5 41 47 23 100 100 100 31 96 100 99 46 72 9 21 100 79 90 88 100 100 100 100 100 100 100 45 3 0 0 0 0 0 0 0 0 4 5 13 27 2 58 100 100 100 100 100 66 79
5 52 67 100 99 5 93 12 47 100 98 89 92 67 69 5 74 100 100 49 100 100 100 100 98 89 0 0 0 0 0 0 2 0 0 2 4 0 38 18 9 31 85 100 100 100 100 83 38
0 5 88 60 38 5 97 14 100 35 11 6 5 23 10 30 65 92 24 2 100 100 100 100 44 1 5 2 0 1 5 5 2 0 0 20 6 0 97 69 19 99 100 100 98 17 9 14 59
4 8 5 14 16 17 69 61 5 97 22 4 5 20 4 0 0 0 0 33 100 100 100 50 5 5 5 0 1 5 5 5 2 0 0 1 1 60 96 68 34 99 100 75 68 39 80 89 24
0 0 0 0 1 100 52 78 18 73 2 5 0 5 0 0 0 0 0 5 4 29 52 5 5 5 0 0 42 87 5 5 2 0 0 0 0 21 100 39 90 98 54 75 56 24 6 100 53
0 0 0 0 0 100 100 61 0 1 2 1 0 0 1 0 0 0 0 0 0 0 5 63 11 1 0 6 98 42 5 3 0 0 23 18 0 5 100 63 98 80 34 8 87 15 6 84 100
0 0 0 0 3 100 68 4 0 0 0 0 0 0 0 0 0 0 0 0 0 4 42 5 4 0 15 60 88 5 5 0 0 0 5 23 4 32 100 77 86 65 16 29 77 85 73 82 97
0 0 0 3 7 36 91 12 2 0 0 0 0 0 0 0 0 0 0 0 4 22 60 5 4 6 3 100 10 62 0 0 2 1 8 0 9 46 100 7 16 8 31 14 18 21 100 78 19
0 0 2 17 0 4 3 2 0 2 0 0 0 0 0 0 0 0 0 4 90 71 5 1 12 0 4 5 4 0 0 0 0 0 1 6 12 11 86 6 6 12 6 18 10 10 12 2 5
0 0 4 13 5 3 1 21 69 0 0 3 24 1 0 0 0 4 3 75 63 4 0 3 0 1 2 0 0 0 0 0 0 1 21 15 5 32 28 95 84 67 19 11 38 31 36 15 9
0 0 5 1 0 0 3 2 96 0 0 1 0 0 1 1 6 10 71 70 5 2 0 0 0 0 0 0 0 0 0 0 2 5 81 0 1 4 9 46 48 57 45 74 87 43 81 6 7
0 0 0 0 4 4 5 1 98 0 0 0 5 27 56 9 6 90 100 55 5 0 0 0 0 0 0 0 0 0 4 11 7 5 23 87 97 59 1 55 7 99 100 51 99 100 86 46 31
0 22 0 2 7 52 45 14 100 5 5 4 3 35 4 5 100 100 70 5 2 1 0 0 0 0 0 0 0 0 6 7 58 0 0 18 99 68 32 52 100 100 100 100 100 71 100 99 72
11 2 0 0 5 71 16 75 100 5 5 33 5 1 30 100 100 33 10 5 5 0 0 0 0 0 0 0 0 30 99 29 24 1 17 8 25 19 12 61 98 30 73 100 100 100 96 100 88
0 50 0 1 12 29 99 100 5 5 64 100 45 97 100 96 10 100 84 37 5 0 0 0 0 0 0 0 58 100 100 100 91 19 55 10 9 4 22 52 94 89 99 57 100 99 64 100 99
0 4 1 0 4 42 77 100 5 9 82 100 100 100 100 100 97 20 65 2 0 0 0 0 0 0 0 1 91 79 100 69 26 11 100 3 5 2 61 77 100 99 100 100 100 88 100 97 82

GFSSGP_prec_cloud_012.txt.gz
Cloud_Cover
100 100 100 83 100 100 100 100 100 100 96 99 22 62 11 5 38 4 4 0 2 0 0 2 0 1 5 4 3 0 0 0 1 0 5 0 0 0 0 0 0 0 0 0 0 0 0 0 0
100 100 100 100 100 100 84 99 100 94 100 100 48 9 3 75 8 0 0 0 0 0 0 0 0 5 11 4 5 3 0 0 0 0 0 0 0 0 0 0 0 0 0 0 0 0 0 0 0
100 100 99 100 100 100 72 100 100 84 100 100 15 5 3 1 98 59 20 5 24 3 1 0 0 23 80 5 5 2 0 0 0 0 0 0 0 0 0 0 0 0 0 1 1 1 0 9 0
100 100 96 100 100 100 100 100 100 100 100 79 5 51 5 5 5 98 63 99 100 93 64 0 5 36 7 5 0 0 0 0 0 0 0 0 0 0 0 0 0 0 0 0 6 5 0 0 0
100 100 100 100 100 100 100 100 100 100 100 100 100 100 50 13 5 66 27 98 100 100 100 1 1 5 5 5 0 0 0 0 0 0 1 0 0 0 0 0 0 9 2 3 1 0 0 0 0
100 100 100 100 100 100 100 100 100 100 100 100 100 100 98 92 2 48 5 100 100 100 36 1 5 5 5 4 0 0 0 0 0 0 5 0 0 0 0 0 2 4 5 0 8 9 2 0 0
100 100 100 100 100 100 100 100 100 100 100 100 86 100 100 15 5 5 3 15 96 31 4 32 5 5 5 5 0 2 0 0 0 4 0 0 0 0 0 0 0 0 0 0 0 0 1 0 0
100 100 91 100 100 100 100 100 88 100 100 100 65 100 100 100 47 61 56 20 100 100 4 42 99 100 12 3 2 4 0 0 2 5 0 0 0 0 0 0 0 0 0 0 0 0 0 0 0
100 99 100 100 100 100 100 100 100 100 100 53 91 98 84 79 31 74 13 53 56 94 12 1 100 93 5 5 3 1 0 3 5 3 0 0 0 0 0 0 0 0 0 0 0 0 0 0 0
99 100 100 100 100 100 100 100 100 100 100 100 100 100 99 98 54 81 47 5 76 89 98 5 88 45 2 2 5 0 0 5 5 5 0 0 0 0 0 0 0 0 0 0 0 0 0 0 0
97 100 100 100 62 77 92 100 100 100 100 100 100 93 100 58 6 4 5 21 90 94 100 33 6 6 5 0 4 5 5 68 5 5 0 0 0 0 0 0 1 5 0 0 0 61 0 0 46
95 100 100 49 44 100 21 28 94 95 100 100 83 100 98 5 4 5 5 74 100 99 100 98 4 49 5 5 5 74 98 100 5 2 0 0 0 0 0 0 0 0 0 15 12 97 17 31 95
92 100 86 87 5 40 41 5 98 92 100 100 100 94 22 7 3 4 5 100 100 100 95 62 16 82 100 16 9 100 92 92 5 0 0 0 0 0 0 0 0 0 0 4 10 18 20 82 88
100 31 44 18 54 32 56 54 94 78 88 100 30 42 45 2 5 62 11 100 100 67 53 16 46 52 100 100 33 92 6 5 0 0 0 0 0 0 0 0 0 0 0 8 100 100 100 99 62
96 94 68 10 96 20 100 34 5 86 100 7 5 6 5 26 5 73 98 51 4 5 5 100 10 41 100 100 90 97 42 0 0 0 0 0 0 0 0 0 0 0 0 10 100 100 61 100 100
21 98 3 64 100 100 100 26 4 20 2 44 0 0 4 5 89 56 52 5 0 1 1 5 5 4 50 100 77 96 7 0 0 3 5 5 3 0 0 0 0 0 0 2 98 100 100 100 100
5 7 2 62 100 46 79 92 2 5 31 4 5 62 12 1 4 17 5 0 1 2 5 3 0 0 5 9 5 6 5 4 2 5 5 5 2 0 0 15 0 2 0 4 69 100 100 99 79
38 90 37 0 7 5 34 97 4 4 64 23 84 94 43 0 0 48 68 0 1 0 0 0 0 0 3 1 54 45 3 0 91 30 23 6 3 0 76 10 8 0 0 0 1 12 95 70 18
1 1 0 0 0 5 5 67 4 0 4 0 5 26 0 0 0 1 1 0 0 0 0 0 0 0 0 30 76 0 1 3 8 10 8 0 0 0 0 0 0 31 26 0 3 5 5 12 14
0 0 0 0 0 2 80 79 5 0 0 0 0 2 0 0 0 0 0 0 0 0 0 0 0 0 8 62 5 5 10 100 88 93 4 0 0 0 57 54 2 3 30 5 22 18 5 5 9
0 0 0 0 0 0 99 15 0 0 0 0 0 0 0 0 0 0 0 0 0 0 0 0 0 4 57 5 5 8 91 39 41 36 6 0 0 0 34 6 0 4 10 5 5 0 18 5 5
0 0 0 0 0 0 24 17 0 0 0 3 2 0 0 0 0 0 0 0 0 0 0 0 7 87 14 5 16 12 100 15 4 0 11 88 68 5 0 0 2 0 0 0 1 0 0 0 15
0 0 0 0 0 0 2 1 0 0 0 0 0 0 2 2 0 0 0 0 1 0 0 6 36 52 7 36 5 5 5 0 0 0 0 0 0 0 0 0 0 2 5 5 5 15 0 0 4
0 0 0 0 0 4 0 0 0 1 0 0 1 5 1 21 3 0 0 4 5 6 81 52 81 69 86 5 2 0 0 3 0 0 3 0 0 0 0 2 64 28 5 9 4 5 5 98 84
0 4 0 0 0 0 0 0 0 0 0 0 2 0 0 4 0 0 0 0 76 99 95 52 79 27 3 0 0 0 0 0 0 0 5 0 0 0 0 22 89 75 92 100 52 5 5 27 85
0 0 0 0 0 0 0 0 0 0 0 0 0 0 0 0 3 2 5 77 100 99 56 77 30 5 0 0 0 0 0 0 0 2 5 0 0 0 0 55 100 61 100 100 100 100 59 5 46
0 4 0 0 1 0 2 35 8 0 0 0 4 0 4 1 0 44 100 100 100 94 100 14 5 0 0 0 0 0 0 60 0 2 3 0 1 0 0 80 84 5 49 100 100 100 100 69 92
42 3 1 0 3 5 1 2 52 7 3 26 3 0 4 5 16 43 100 94 100 78 5 3 0 0 0 0 0 0 57 0 0 5 6 25 12 41 19 93 41 98 100 100 96 8 15 70 22
1 2 0 2 0 5 36 86 100 1 4 54 2 0 70 99 100 100 100 100 97 8 0 0 0 0 0 0 1 0 30 56 65 55 37 0 5 5 3 100 32 100 100 100 100 100 82 24 50
4 2 5 0 0 1 5 36 83 0 0 4 5 31 100 100 100 100 100 29 5 2 0 0 0 0 0 0 0 22 91 97 3 5 100 0 1 12 81 100 98 100 100 100 100 61 9 41 21

GFSSGP_prec_cloud_015.txt.gz
Cloud_Cover
100 100 100 100 100 100 100 82 95 100 100 100 90 30 41 2 0 0 3 5 3 0 5 5 5 0 0 5 4 2 5 3 1 0 0 0 0 0 0 0 0 0 0 0 0 0 0 0 0
100 99 100 100 100 100 80 96 75 99 100 100 100 100 15 0 0 0 0 24 18 6 86 0 28 1 100 99 16 10 47 5 1 0 0 0 0 0 0 0 0 0 0 0 0 0 0 0 0
100 100 100 100 100 100 100 100 100 100 87 100 100 100 51 4 0 1 3 4 4 1 0 1 5 30 100 100 87 5 51 5 1 0 0 0 0 0 0 0 0 0 0 3 8 2 0 0 0
100 100 100 100 100 100 100 100 100 87 100 99 100 98 61 37 14 96 30 4 0 0 0 5 66 100 69 13 5 5 5 5 2 0 0 0 0 0 0 0 0 0 0 0 3 1 0 0 0
100 100 100 100 100 100 100 100 100 100 100 100 87 90 78 94 52 5 98 17 4 42 35 21 2 2 4 25 5 5 5 5 0 0 0 0 0 0 0 0 0 0 4 9 9 13 0 0 0
100 100 100 100 100 100 100 100 100 100 100 100 100 93 13 72 100 100 100 99 23 20 72 97 76 15 82 25 36 51 4 0 0 0 0 0 0 0 0 0 0 0 5 2 0 0 0 0 0
100 100 100 100 100 100 100 100 100 100 100 100 100 100 50 97 56 46 88 86 66 99 100 100 100 100 76 100 98 16 0 0 0 0 0 0 0 0 0 0 0 0 0 0 0 0 0 0 0
100 100 100 100 100 100 100 100 100 100 100 100 100 100 100 93 94 26 82 99 44 35 58 100 100 100 13 5 20 5 5 5 2 0 0 0 0 0 0 0 0 0 0 0 0 0 0 0 0
100 99 100 100 100 100 100 100 100 100 100 99 100 100 100 100 73 88 12 22 23 4 14 33 32 94 94 40 3 5 5 5 0 4 4 5 5 5 5 0 0 0 0 0 0 0 0 0 0
98 81 100 100 100 100 100 100 100 100 100 98 100 100 100 100 100 100 100 98 78 79 60 100 99 100 100 49 0 5 3 4 6 5 5 31 5 5 5 0 0 0 0 0 0 0 0 0 0
100 100 100 100 100 100 100 100 100 100 99 100 100 100 100 100 100 100 54 100 100 100 100 94 68 100 51 4 2 5 5 37 50 12 17 51 6 5 0 0 0 0 0 0 0 0 0 0 0
100 99 99 100 100 100 100 100 100 100 100 100 100 65 77 100 99 100 7 36 13 97 83 50 74 4 1 4 5 5 5 1 5 5 17 90 5 3 0 0 0 0 0 0 0 0 0 2 5
100 96 90 98 100 88 86 100 100 100 100 100 100 92 8 5 5 33 6 58 100 40 7 92 31 18 5 5 5 5 5 5 2 5 23 5 2 0 5 3 0 0 0 0 0 0 23 76 74
100 99 48 5 9 100 100 100 100 100 100 100 100 22 3 5 1 1 5 5 6 5 7 97 22 99 100 91 4 0 0 4 0 0 0 0 0 5 5 5 2 0 0 0 0 33 100 100 47
31 43 17 24 78 85 100 100 100 100 100 98 10 0 0 0 4 6 6 3 5 95 66 4 40 98 100 5 1 0 0 0 0 0 0 2 1 86 43 6 5 0 3 0 0 0 100 100 100
1 29 31 53 100 100 100 99 100 100 92 6 5 1 0 1 5 0 0 4 57 18 100 26 5 0 5 47 1 0 0 0 0 0 0 5 1 76 100 8 3 0 0 0 0 0 100 100 100
84 36 13 98 100 100 100 45 60 60 5 0 0 3 25 16 5 4 0 0 14 60 28 3 4 0 2 12 0 0 0 0 0 0 0 0 4 77 100 14 0 0 0 6 17 22 15 100 100
4 100 100 100 100 26 10 0 1 4 0 0 3 2 3 3 5 7 1 0 1 3 5 5 0 0 0 0 3 0 0 0 0 0 3 0 54 92 60 3 13 8 0 19 26 17 5 36 100
0 0 0 0 99 100 6 0 0 0 0 0 0 0 4 5 5 1 0 0 0 0 0 0 0 0 0 0 4 5 5 2 0 28 22 22 100 21 5 0 14 0 0 0 0 28 18 25 49
0 0 0 0 2 40 71 0 0 0 0 0 0 0 0 0 0 0 0 0 0 0 0 0 0 4 0 5 5 5 4 2 10 6 40 38 52 76 0 0 23 1 0 0 1 0 4 5 56
0 0 0 0 0 0 0 0 0 0 0 0 0 0 0 0 0 0 2 0 0 0 0 0 0 0 0 5 1 7 3 31 14 60 95 100 47 0 3 0 0 0 0 0 3 4 2 16 7
0 0 0 0 0 0 0 0 0 0 0 0 0 0 0 0 0 0 0 0 0 0 0 0 0 0 5 41 38 4 5 5 15 67 56 4 50 22 3 2 0 4 1 5 5 19 5 1 2
0 0 0 0 0 0 0 0 0 0 0 0 0 0 0 0 0 0 0 0 0 0 0 0 0 6 88 5 4 21 5 5 2 0 0 0 0 32 0 0 7 4 6 5 9 5 99 17 0
0 0 0 0 0 0 0 0 0 0 0 0 0 0 0 2 0 0 0 0 0 5 0 1 29 25 76 37 65 7 5 0 0 0 0 1 51 0 0 0 23 12 87 100 100 55 5 22 71
0 0 0 0 0 0 0 0 0 3 0 0 0 0 0 0 0 0 0 0 0 45 63 66 58 81 39 5 5 2 0 0 0 0 0 0 0 0 0 19 5 100 100 100 100 100 88 19 100
5 1 0 0 0 0 0 0 0 0 0 0 0 0 0 0 0 0 0 0 60 100 100 100 97 33 8 5 0 0 0 0 0 0 0 0 0 0 0 5 6 96 97 100 100 98 100 100 100
44 4 2 0 0 0 0 0 0 0 0 0 0 0 0 0 0 0 0 19 67 100 99 100 71 14 3 0 0 0 0 0 0 0 0 0 0 3 8 7 93 100 100 100 100 53 92 98 100
5 21 3 0 0 0 0 0 0 0 0 0 0 0 0 0 0 16 26 56 44 100 100 52 35 0 0 0 0 0 0 0 0 0 0 0 0 27 2 87 100 100 100 100 100 100 100 100 100
0 8 4 0 0 0 0 0 5 93 7 0 0 0 1 0 8 66 100 100 100 100 82 5 0 0 0 0 0 0 0 0 0 0 0 0 0 11 5 63 100 100 100 41 100 100 88 100 100
0 0 64 67 3 2 4 3 36 67 31 4 0 0 2 0 74 100 100 100 100 7 14 5 0 0 0 0 0 0 0 0 2 0 96 0 0 3 66 100 62 100 100 100 100 100 38 100 100

GFSSGP_prec_cloud_021.txt.gz
Cloud_Cover
100 100 100 100 100 100 97 99 100 100 28 5 5 11 10 84 60 90 20 3 0 2 5 5 0 0 0 0 4 4 5 5 8 85 50 1 5 6 8 0 0 0 0 0 0 0 0 0 0
100 100 100 100 100 100 61 96 100 87 9 5 6 73 67 59 66 4 10 4 0 4 4 5 0 3 4 5 13 5 5 0 1 3 5 51 5 5 0 0 1 0 0 0 0 0 0 0 0
100 100 100 100 100 100 100 100 100 90 28 93 18 5 12 68 94 89 5 5 100 99 5 4 2 5 5 5 5 5 5 2 4 5 5 4 4 5 5 4 3 0 0 0 0 0 0 0 0
100 100 100 100 100 100 68 100 100 100 100 99 21 5 5 7 95 54 42 5 5 45 7 5 5 30 55 5 5 5 11 58 42 0 5 33 88 10 97 5 0 0 0 0 0 0 0 0 0
100 100 100 100 100 100 58 82 100 100 100 73 100 100 73 5 43 54 5 6 5 5 5 7 5 7 20 95 100 100 100 33 26 100 100 61 84 64 5 1 0 0 0 0 0 0 0 1 0
100 100 100 100 100 100 76 80 100 100 100 100 88 88 4 5 5 3 5 33 13 91 76 94 96 100 100 100 96 48 7 92 100 70 20 9 5 2 4 2 0 0 0 0 4 16 0 0 0
100 100 100 100 100 100 100 97 91 98 100 22 55 100 64 89 84 89 100 100 98 100 100 100 100 100 100 100 100 98 100 100 99 1 4 0 5 5 5 4 0 0 0 9 2 1 0 5 1
100 100 100 100 100 100 100 100 100 100 100 100 75 11 31 98 100 100 100 52 38 100 100 100 100 100 100 100 100 100 100 100 89 5 5 5 0 0 1 0 0 0 0 0 0 0 0 0 0
100 100 100 100 100 100 100 100 100 100 100 100 72 88 100 100 100 100 100 83 100 100 100 100 100 100 100 100 100 100 100 47 66 5 1 0 0 0 0 0 0 0 0 0 0 0 0 0 0
100 100 100 100 100 100 100 100 100 100 100 100 100 100 100 100 100 78 100 100 92 64 97 32 88 95 95 100 80 18 71 27 5 5 0 0 10 12 0 0 0 0 4 0 1 0 0 0 0
100 100 100 100 100 100 100 100 100 100 100 100 100 100 100 100 100 100 100 64 99 80 28 41 54 5 15 61 39 5 5 5 5 5 5 20 29 10 4 26 2 9 18 11 5 3 0 0 0
80 100 100 100 100 100 100 100 100 100 100 100 100 100 100 100 100 100 100 58 6 98 39 9 28 5 5 5 5 1 5 90 97 73 68 45 44 35 30 24 0 29 28 76 76 9 1 0 0
15 77 39 98 100 100 100 100 100 100 100 100 100 100 100 100 100 100 28 12 20 8 10 5 5 4 5 6 3 4 75 94 94 65 100 72 25 7 17 3 7 15 26 44 72 0 5 0 0
70 6 72 100 70 100 99 100 100 100 100 100 100 100 100 86 91 60 48 6 5 5 5 5 90 81 86 4 0 19 99 99 91 94 99 41 6 25 6 5 18 33 85 9 12 5 5 4 3
28 9 4 5 82 100 100 100 100 100 100 100 100 34 21 10 5 6 60 12 5 5 0 0 0 5 0 5 5 5 74 99 100 100 100 71 18 99 60 4 93 55 83 5 5 5 5 2 0
99 29 4 51 100 100 100 18 100 100 100 100 99 53 6 6 5 41 84 61 28 5 4 0 0 0 0 0 73 39 96 100 100 62 83 85 60 39 7 18 84 72 40 15 12 6 5 8 54
5 5 12 100 100 93 88 1 34 100 100 56 14 2 4 5 93 97 98 44 13 2 0 0 0 0 5 5 4 20 79 77 100 28 87 29 72 19 3 88 99 100 81 12 6 9 3 11 30
83 74 100 100 100 96 4 0 5 97 24 0 0 0 4 8 92 100 70 25 1 0 0 0 0 0 0 0 5 17 88 26 100 52 100 79 41 3 70 100 100 38 23 25 26 18 34 36 38
100 5 1 9 100 100 12 0 93 5 1 0 5 5 5 5 20 67 90 5 60 37 96 5 0 0 0 5 5 11 5 10 87 87 86 100 11 30 100 100 81 9 16 10 5 12 38 92 100
33 18 25 5 81 100 84 0 0 0 4 34 95 100 100 100 100 100 64 5 29 80 78 5 0 2 5 1 4 2 2 43 9 30 99 88 3 75 100 100 4 9 18 0 2 28 49 83 72
0 6 100 71 100 64 89 0 0 61 62 56 47 100 100 100 29 4 2 1 0 0 3 1 0 1 0 0 4 4 5 3 9 34 39 5 4 73 73 3 4 14 9 10 12 59 70 100 100
0 0 19 7 98 5 7 0 0 1 1 41 100 100 0 0 0 0 0 0 0 0 0 0 0 1 4 0 0 0 0 0 71 5 2 91 83 35 5 0 0 2 15 8 17 100 98 100 100
0 0 0 0 0 0 0 0 0 0 0 2 0 0 0 0 0 0 0 0 0 0 0 9 26 19 3 0 0 0 2 9 0 2 8 79 39 5 1 83 100 88 11 53 100 100 100 100 98
28 0 0 0 0 0 0 0 0 0 0 0 0 0 0 0 0 0 0 0 21 81 65 58 49 32 0 0 2 5 0 0 0 3 7 11 1 3 94 98 0 0 64 99 100 100 100 100 80
64 48 3 0 0 0 0 0 0 0 0 0 0 0 0 0 0 0 0 28 100 100 98 55 13 12 2 5 0 0 0 0 3 46 5 1 2 53 15 0 0 4 5 100 100 9 98 100 100
7 96 62 2 0 0 0 0 0 0 0 0 0 0 0 0 0 1 34 48 77 45 22 7 0 13 95 5 3 0 0 2 1 0 0 0 0 5 23 0 0 72 82 23 22 28 97 100 100
0 5 97 72 0 0 0 0 0 0 0 0 0 0 0 0 2 64 49 33 19 17 7 10 69 12 5 4 0 0 0 0 0 0 0 0 0 0 0 0 10 52 10 29 86 5 100 100 100
4 4 39 52 3 0 0 0 0 2 0 0 0 0 0 0 60 79 43 25 16 5 2 31 6 83 7 0 0 0 0 0 0 0 0 0 0 0 0 0 3 5 7 100 86 22 95 100 100
70 5 5 5 4 0 0 0 0 29 0 0 0 0 0 2 84 79 42 8 78 93 96 8 3 0 26 24 0 0 0 0 0 0 0 0 0 0 0 0 3 5 92 5 98 92 100 100 74
100 29 4 5 1 0 0 0 0 0 0 0 0 1 0 31 63 47 26 74 32 100 65 5 0 0 0 0 0 0 0 0 0 0 0 0 0 0 0 0 4 97 23 99 100 100 100 99 100

GFSSGP_prec_cloud_024.txt.gz
Cloud_Cover
100 100 100 100 96 100 100 100 100 97 64 100 59 10 45 16 68 58 59 20 4 7 7 5 30 1 0 0 0 0 0 0 5 5 5 4 0 0 1 26 85 63 5 5 0 0 0 0 0
100 100 100 100 100 100 100 97 100 100 100 100 5 5 62 60 14 39 24 5 5 4 4 14 22 0 0 0 0 0 0 5 5 5 65 5 1 20 100 100 66 5 48 2 0 0 0 0 0
100 100 100 100 100 100 100 100 97 100 90 93 5 4 21 7 5 64 34 53 5 5 5 3 0 0 0 0 0 3 5 82 98 82 60 5 5 5 38 17 0 0 0 1 0 0 0 0 0
100 100 100 100 100 54 100 27 99 54 100 98 99 5 4 2 5 8 6 34 5 33 50 2 5 2 0 0 5 4 77 100 100 98 6 1 5 47 11 0 0 0 0 0 0 0 0 0 0
100 100 100 100 100 100 98 57 100 100 100 100 100 100 84 8 6 34 5 26 30 58 5 22 5 5 44 28 5 9 52 100 99 12 42 8 98 70 0 1 0 0 0 0 0 0 0 0 2
100 99 100 100 100 100 100 100 100 100 100 100 98 100 19 16 61 28 99 89 59 64 95 100 12 49 100 100 96 100 81 20 6 5 33 0 5 5 4 3 0 0 0 0 0 0 0 0 0
100 100 100 100 100 100 75 57 100 100 100 100 80 98 81 5 52 87 23 5 8 100 100 76 100 100 100 100 93 99 21 3 0 0 5 4 0 4 4 0 0 0 0 0 0 0 0 0 0
100 100 100 100 100 100 83 9 83 100 100 100 100 100 91 38 59 88 25 67 65 98 100 100 100 100 100 100 100 100 100 94 93 89 63 82 5 4 0 0 0 0 0 0 0 0 0 0 0
100 100 100 100 100 100 100 95 100 100 100 100 100 100 93 97 50 5 5 81 99 100 100 100 100 100 100 100 86 100 100 100 65 40 36 19 4 0 0 0 0 0 0 0 0 2 0 0 0
100 100 100 100 100 100 100 100 100 100 100 100 100 100 95 98 100 88 100 100 100 100 100 100 100 100 100 100 100 100 100 86 2 5 5 5 4 4 0 1 0 0 0 0 0 5 4 0 0
100 89 100 100 100 100 100 100 100 100 100 100 100 100 100 100 100 100 100 100 100 100 99 100 100 100 81 54 13 89 14 5 4 66 69 20 9 9 6 7 0 2 0 0 0 5 5 3 0
38 57 100 100 100 100 100 100 100 100 100 100 100 100 100 100 100 100 100 100 100 100 100 100 94 99 92 100 70 5 5 5 8 68 77 52 28 36 72 15 7 16 17 23 6 5 5 0 0
43 76 69 100 100 100 100 100 100 100 100 100 100 100 100 100 100 100 98 91 100 70 100 100 77 30 14 75 4 0 0 5 43 86 100 59 78 19 100 74 16 5 14 18 20 5 5 3 0
72 31 94 100 100 100 100 100 100 100 100 100 100 100 100 79 94 98 72 7 57 73 88 49 4 5 5 5 2 0 0 3 44 100 100 90 44 6 86 98 95 96 51 13 36 65 5 4 1
69 69 99 39 99 100 100 58 65 100 100 100 100 100 100 100 73 8 26 88 87 22 36 5 5 0 3 5 1 0 0 5 5 14 100 87 92 2 99 100 100 100 100 100 100 56 13 2 5
7 98 22 3 100 100 100 27 100 100 100 100 93 5 0 5 11 22 53 100 100 97 18 12 5 2 4 0 0 1 2 8 18 19 85 16 61 4 76 100 100 100 100 100 100 76 8 5 2
100 5 5 76 100 99 86 10 27 99 100 13 5 5 3 5 59 99 92 92 83 79 42 21 4 2 2 2 0 4 3 18 5 4 49 93 95 5 5 35 100 100 100 100 100 22 5 1 4
98 100 77 72 100 95 5 0 5 91 46 2 0 5 5 5 5 5 9 5 6 3 0 2 2 4 5 0 1 1 0 0 0 3 91 66 14 53 95 97 100 100 92 100 25 2 13 17 34
100 5 95 100 100 100 28 0 6 4 5 5 6 5 1 0 5 5 5 5 4 0 0 82 78 4 0 0 0 3 0 20 26 99 93 5 50 100 33 49 45 100 42 32 54 21 39 97 100
6 74 23 100 91 93 87 0 0 5 5 63 30 12 5 9 17 5 5 1 33 38 83 5 4 0 0 0 0 0 4 72 96 100 74 67 90 40 5 6 95 62 29 80 52 29 86 100 98
0 0 47 100 100 99 56 0 0 4 7 89 19 100 92 99 46 53 11 5 19 83 14 4 0 0 0 0 0 32 16 59 58 96 100 39 5 5 19 100 15 5 50 58 21 24 70 91 56
5 0 0 0 46 100 33 0 0 41 7 30 24 100 87 1 5 5 4 73 100 74 5 0 0 0 0 0 0 0 16 36 13 99 33 31 5 58 100 6 1 21 61 44 29 84 88 18 63
6 4 0 0 0 0 6 0 24 38 7 100 100 100 15 5 5 48 83 0 0 3 0 0 0 8 8 0 0 0 0 4 17 17 32 12 30 100 84 3 1 2 58 0 46 80 29 23 98
0 0 0 2 2 0 0 0 1 94 100 100 100 100 56 58 91 1 0 0 11 64 99 76 57 72 1 0 0 0 0 3 10 15 12 29 15 3 0 0 0 64 2 0 28 2 5 39 99
18 1 0 0 0 0 0 0 0 42 10 0 1 58 89 100 27 0 0 17 74 100 100 100 38 40 2 0 2 5 4 0 0 0 13 6 4 2 2 0 0 0 0 4 5 7 28 80 75
59 82 0 0 0 0 0 0 0 0 0 0 0 0 9 1 0 0 4 74 100 100 99 38 18 14 0 3 5 5 0 0 0 2 0 3 0 0 0 77 10 0 0 54 5 99 98 19 85
8 83 0 1 0 0 0 0 0 0 0 0 0 0 0 0 0 61 100 100 100 76 29 6 0 0 5 6 9 0 0 18 9 0 0 0 0 0 38 1 0 0 5 73 3 27 11 92 100
12 0 8 19 0 0 0 0 0 0 0 0 0 0 0 0 63 100 100 88 62 23 7 70 0 12 5 4 0 0 0 0 0 0 0 0 0 0 0 0 0 0 16 13 35 52 85 100 62
98 4 1 1 0 0 0 0 0 2 0 0 0 0 0 4 100 100 97 65 28 12 66 66 5 5 2 0 0 0 0 0 0 0 0 2 0 0 0 0 0 0 11 39 52 58 96 37 61
43 83 12 0 0 0 0 0 0 79 0 0 0 0 16 61 100 100 84 41 13 25 5 58 5 5 2 4 0 0 0 0 0 0 0 0 0 0 0 0 0 0 38 5 54 94 100 53 66

GFSSGP_prec_cloud_027.txt.gz
Cloud_Cover
100 100 6 96 96 12 91 100 100 95 100 100 100 100 100 62 5 5 5 64 81 100 24 5 0 0 0 0 0 0 0 0 0 0 0 0 0 1 0 5 6 38 62 60 2 0 0 0 0
53 29 72 78 88 100 100 100 100 100 100 100 100 100 100 57 64 25 11 100 100 31 6 0 1 3 1 0 0 0 0 0 0 0 0 7 76 12 5 78 98 100 2 0 0 0 0 0 0
90 85 83 100 100 58 93 100 100 100 100 100 100 100 95 80 42 4 10 23 13 5 5 5 5 5 0 0 5 0 0 0 0 0 36 100 41 89 100 15 5 1 0 0 4 0 0 0 0
100 100 100 100 100 97 55 100 100 100 33 100 100 100 50 5 5 5 4 5 53 66 5 5 5 3 0 5 5 0 0 5 0 5 65 6 3 5 54 5 0 0 2 0 2 0 0 0 0
95 48 99 100 100 40 37 23 97 83 5 13 88 100 93 43 7 4 5 1 2 10 13 81 44 5 2 100 4 4 4 1 7 5 2 5 5 5 5 4 0 5 5 0 0 0 0 0 0
100 76 100 100 100 72 48 5 28 100 64 61 55 100 98 68 78 94 100 52 36 94 63 71 60 5 14 100 15 5 5 7 55 4 5 5 5 5 4 0 0 4 1 5 0 0 0 0 0
100 100 100 100 100 79 46 5 19 70 85 100 98 100 100 100 97 90 100 51 86 46 66 59 68 10 100 98 8 22 95 5 5 3 3 5 6 5 2 0 1 2 5 0 0 0 0 0 0
100 100 100 100 100 100 100 25 100 100 52 98 100 100 100 39 52 56 79 7 56 97 100 100 82 68 98 100 32 100 100 99 100 30 5 5 5 5 0 2 3 0 0 0 0 0 0 0 0
92 95 100 100 100 100 100 83 92 100 98 100 100 91 90 100 37 7 44 48 5 5 5 89 92 89 98 66 30 91 100 100 100 93 6 5 27 5 2 0 0 1 1 0 0 0 0 0 0
75 5 100 100 100 100 100 100 100 66 33 100 100 100 100 44 41 72 100 94 24 93 98 68 100 100 8 50 100 31 88 100 100 36 5 39 98 50 5 5 5 5 5 5 5 0 0 0 0
91 11 100 100 100 100 100 100 100 84 4 13 95 100 100 99 20 79 86 16 80 97 100 100 100 65 96 100 97 100 100 24 45 72 5 75 90 79 46 11 5 56 83 13 5 5 4 0 0
49 78 100 100 100 100 100 100 100 100 100 90 45 99 100 100 100 100 100 100 100 96 100 100 100 88 98 88 95 86 95 31 22 5 5 72 97 93 80 87 75 93 80 46 5 7 6 5 1
62 94 72 100 100 100 100 100 100 100 100 100 100 100 100 100 100 100 100 100 100 100 100 100 69 99 24 86 100 80 42 25 5 0 19 83 62 10 78 100 100 12 98 85 100 98 100 100 100
78 82 94 100 100 100 100 100 100 100 100 100 100 100 100 100 100 100 100 100 100 100 100 100 96 48 30 100 71 5 5 3 0 0 5 25 50 51 36 62 80 100 98 100 97 100 100 76 14
100 89 65 99 100 100 100 28 52 100 100 81 100 100 100 100 100 100 100 100 100 100 67 51 8 60 33 5 5 5 5 0 0 0 0 4 26 5 90 92 33 7 92 66 100 100 77 65 100
100 100 10 19 100 100 100 10 100 100 100 100 100 99 47 29 12 48 99 99 35 68 92 49 42 5 30 4 0 0 5 5 4 0 4 0 2 19 89 71 98 98 100 100 100 100 100 100 100
12 55 76 100 100 100 91 1 52 42 88 77 100 23 12 64 100 100 100 89 85 22 61 8 5 7 4 0 0 11 6 5 5 4 0 3 17 75 5 96 73 49 72 91 100 100 100 100 100
95 87 8 61 100 98 41 0 5 18 36 5 36 100 100 100 100 100 100 100 86 29 5 5 5 5 0 0 4 25 5 5 0 0 0 14 89 74 13 5 99 62 99 100 100 100 100 73 16
1 10 5 5 16 99 38 2 0 1 0 0 5 64 60 71 100 100 100 92 5 43 8 5 5 4 2 5 5 27 5 0 0 0 24 100 54 51 36 68 36 98 47 100 100 100 84 50 100
0 0 0 5 5 4 0 0 4 2 0 0 0 3 6 93 100 99 6 5 5 5 3 2 0 4 5 5 5 0 0 1 0 31 80 50 5 57 78 48 76 100 100 100 93 86 75 99 90
16 5 0 1 5 0 0 0 0 5 2 5 4 8 19 96 100 26 3 0 0 0 0 4 5 5 5 2 0 0 5 67 88 78 92 52 99 56 57 58 100 100 100 100 89 18 22 45 99
100 82 5 2 2 0 0 0 0 0 3 40 100 100 100 100 99 12 0 0 0 21 82 34 9 5 4 0 0 0 0 8 30 100 53 97 69 78 37 59 100 100 86 86 48 0 38 46 38
26 99 74 56 5 0 0 0 0 63 4 3 100 100 97 88 5 5 5 5 27 100 7 5 5 5 0 0 0 0 0 1 0 6 95 100 100 68 40 85 99 6 38 59 11 34 38 17 4
28 0 30 95 77 17 0 0 0 0 37 100 100 100 84 86 4 5 33 79 88 44 100 8 25 5 0 0 0 0 0 0 0 38 100 100 68 53 20 8 3 0 1 2 4 5 24 33 100
24 66 0 4 35 2 0 0 0 0 0 0 4 77 100 90 5 1 62 99 74 36 44 88 13 0 0 0 0 0 0 1 9 54 38 37 26 16 32 1 0 0 0 0 0 4 9 22 38
14 4 0 0 0 0 0 0 0 0 0 0 0 0 0 0 8 100 95 100 90 28 100 12 0 5 9 0 0 0 0 7 8 8 0 0 0 0 1 0 0 0 0 0 0 10 2 17 91
98 82 0 2 0 0 0 0 0 0 0 0 0 0 0 0 0 0 0 20 100 100 74 20 18 30 7 0 0 0 19 5 0 0 0 0 0 0 0 0 0 0 0 0 3 4 95 58 89
100 91 51 93 2 0 0 0 0 0 1 0 0 0 0 0 0 4 94 100 100 68 47 37 23 0 0 0 0 5 5 0 0 0 0 0 0 0 0 0 0 0 0 0 18 31 98 93 88
100 90 37 77 2 4 0 0 0 0 5 0 0 0 0 0 0 100 100 100 70 45 22 8 0 1 4 1 5 4 0 0 0 0 0 0 0 0 0 0 0 0 0 2 5 48 85 91 58
100 100 50 96 4 2 1 0 0 0 26 0 0 0 0 23 90 100 100 91 53 21 1 1 5 5 5 4 5 5 0 0 0 0 0 0 0 0 0 0 0 0 0 5 33 55 16 100 93

GFSSGP_prec_cloud_030.txt.gz
Cloud_Cover
100 65 5 5 82 100 71 50 99 100 100 100 100 100 100 100 100 100 100 97 5 9 36 96 95 3 0 0 0 0 0 0 0 0 0 0 0 0 5 40 0 1 4 5 5 1 0 0 0
98 100 51 5 20 60 81 96 100 100 99 100 100 100 100 100 100 100 100 49 93 99 7 6 0 0 0 0 0 0 0 0 0 0 0 3 0 2 0 1 0 0 3 5 2 0 0 0 0
90 66 41 13 16 36 8 44 35 79 100 100 100 100 100 100 100 100 93 100 94 4 23 4 0 0 0 0 0 0 0 0 0 0 5 5 5 4 4 0 0 0 3 1 0 0 0 0 0
27 82 100 53 33 4 5 83 100 85 100 100 100 100 100 100 100 49 23 47 5 9 5 5 2 0 0 0 21 21 0 0 0 5 8 5 97 81 4 2 5 4 0 0 0 0 0 0 0
100 100 100 81 76 8 5 46 5 77 84 98 100 100 100 100 55 58 97 96 100 54 5 17 10 0 0 33 84 24 0 0 5 5 7 81 46 4 5 17 0 0 2 6 0 0 0 0 0
95 29 92 100 100 74 5 5 22 100 97 73 100 100 100 100 99 47 35 84 100 97 100 100 16 4 12 88 57 4 0 4 8 5 5 32 38 97 95 5 0 3 56 10 0 0 0 0 0
100 37 88 100 100 68 5 26 97 100 100 100 100 88 100 43 62 17 5 5 59 100 68 19 24 5 3 5 4 5 16 95 5 5 3 5 6 17 5 5 3 5 0 0 0 0 0 0 0
100 71 68 100 100 100 65 51 77 100 98 92 98 66 5 5 98 100 92 95 98 12 44 58 24 5 3 1 5 7 100 100 23 4 2 5 60 50 10 5 5 4 5 4 0 0 0 9 0
99 18 35 100 100 100 100 98 89 44 5 65 100 93 83 98 84 92 72 79 6 5 24 8 5 5 2 7 34 91 100 100 73 34 5 61 20 5 5 5 5 5 5 5 5 2 0 0 0
100 30 89 100 100 100 100 100 98 87 5 5 5 6 64 99 98 89 99 100 100 100 5 5 5 8 5 100 100 100 100 100 100 98 93 50 5 5 5 5 5 42 34 11 5 4 5 5 4
100 9 100 100 100 100 100 100 100 100 100 94 61 5 5 11 100 68 49 15 16 57 5 5 33 100 75 85 100 100 100 98 97 83 10 5 4 5 5 9 99 54 6 99 85 13 96 79 57
100 100 100 100 100 100 100 99 8 30 100 100 100 70 5 67 67 7 53 57 15 68 14 28 100 100 100 100 100 100 90 100 100 97 59 5 5 5 60 9 9 79 95 36 66 97 97 100 100
16 100 100 100 100 100 100 100 100 30 100 100 100 98 82 80 56 18 5 46 97 26 92 100 100 100 100 100 100 100 95 100 98 96 60 54 0 5 88 39 18 12 5 78 72 70 100 96 95
100 95 100 100 100 100 100 100 100 77 100 100 86 100 100 100 100 100 100 100 100 100 100 100 100 100 100 85 51 98 100 100 66 20 5 4 0 3 19 80 10 57 100 94 46 57 98 100 100
100 72 100 98 84 100 100 100 12 100 88 5 60 98 100 100 100 100 100 100 100 100 100 100 100 100 77 84 87 100 97 98 6 0 0 0 5 5 5 5 5 19 88 33 17 27 98 100 100
100 100 86 46 100 100 100 21 79 100 98 8 93 62 13 91 100 100 100 100 100 100 100 100 100 36 83 100 100 100 100 12 4 0 0 5 9 6 5 33 30 94 93 5 5 5 41 43 78
100 100 100 100 100 100 100 5 78 100 100 100 59 54 15 16 56 84 98 98 97 79 96 86 43 86 91 98 100 93 5 5 3 5 4 5 8 26 5 97 66 100 28 38 5 5 100 99 100
9 17 68 100 100 100 20 2 21 76 92 5 48 60 94 21 100 100 100 100 69 71 48 67 14 45 22 85 59 5 0 0 3 5 5 0 6 65 88 48 91 80 91 5 52 95 97 99 100
0 0 0 0 32 100 91 4 5 5 87 5 5 5 53 5 86 100 100 100 100 100 70 29 75 92 24 5 9 1 0 4 43 5 0 0 24 98 95 100 86 100 72 42 100 100 100 100 98
0 0 0 0 0 0 61 7 100 20 0 5 4 3 27 84 96 100 100 81 58 5 5 76 100 81 34 51 5 2 5 3 0 0 0 13 92 77 88 55 55 7 5 100 100 100 80 41 72
3 5 3 3 5 0 1 0 18 79 25 6 27 5 5 41 100 72 10 23 4 5 5 22 100 90 10 21 5 16 3 5 0 0 53 100 64 98 100 85 44 50 5 100 100 100 95 37 89
5 6 56 40 48 0 0 0 2 18 31 78 100 100 100 100 75 6 5 5 2 5 8 89 70 32 13 3 21 9 11 6 5 0 58 44 99 100 100 100 53 24 7 81 89 97 10 22 30
99 97 100 100 82 71 2 4 0 1 8 36 35 100 100 100 8 5 5 0 0 0 0 4 1 0 13 26 94 31 5 7 2 0 71 100 100 100 100 52 17 5 12 25 6 44 12 31 1
100 100 100 100 100 92 12 71 0 0 0 16 98 98 60 75 14 8 30 4 10 4 16 5 7 100 17 7 11 1 0 0 0 10 100 100 100 100 88 40 19 19 15 5 3 14 26 9 6
100 100 100 100 100 80 62 100 0 0 0 0 0 2 4 2 0 5 5 10 14 63 99 49 98 5 10 5 5 0 0 0 10 96 96 94 95 95 93 66 24 13 4 1 18 39 13 13 9
100 100 100 100 100 62 100 99 0 0 0 0 0 0 0 0 0 2 53 86 100 100 100 100 25 26 84 0 0 0 4 0 20 17 60 96 98 94 77 58 30 24 35 33 2 0 4 27 53
49 100 40 100 100 100 8 37 0 0 0 0 0 0 0 0 0 0 0 0 0 0 0 0 1 1 0 0 12 40 27 29 36 100 74 81 87 52 45 34 42 32 6 0 4 0 6 32 99
74 100 100 100 100 100 65 9 0 0 0 0 0 0 0 0 0 0 0 3 0 0 1 8 12 19 16 28 31 38 72 66 78 44 36 18 12 15 32 24 11 0 0 0 0 7 81 100 100
100 100 100 100 100 100 100 0 0 2 0 0 0 0 0 0 0 1 48 26 0 1 19 38 21 16 24 37 42 40 36 7 4 11 4 0 0 1 0 0 0 0 0 0 8 13 12 99 90
100 100 100 100 73 100 100 100 0 0 0 0 0 0 1 85 92 100 100 4 4 14 15 12 8 5 29 33 36 33 25 16 4 0 0 0 0 0 0 0 0 0 6 0 2 15 78 98 78

GFSSGP_prec_cloud_033.txt.gz
Cloud_Cover
100 30 4 0 5 4 5 71 100 69 88 81 92 100 100 100 100 100 100 100 100 100 100 29 0 0 1 70 1 3 0 0 0 0 0 0 0 0 0 0 0 5 2 4 0 5 0 0 0
100 98 100 13 52 5 6 5 92 37 38 100 100 82 100 100 100 100 100 100 100 100 60 5 1 5 5 0 0 0 0 0 0 0 0 0 0 1 3 0 4 4 100 78 5 11 0 0 0
94 100 100 100 100 40 8 5 5 10 100 100 100 100 100 100 100 100 100 100 100 99 35 90 33 0 2 0 0 0 0 1 0 0 0 0 0 4 1 4 5 17 15 35 100 74 0 0 0
95 69 86 100 100 100 100 100 94 29 6 12 77 100 100 100 100 100 100 100 100 31 21 31 6 5 3 4 98 98 12 1 4 0 0 0 2 5 5 5 0 5 8 100 1 0 0 1 0
93 100 92 99 100 100 100 98 100 41 25 73 98 98 100 100 100 100 100 89 99 47 6 5 15 4 9 100 100 94 5 4 2 0 0 0 5 5 5 0 3 5 12 5 0 3 5 0 0
95 60 72 100 100 100 60 85 100 83 80 95 87 96 85 100 68 100 100 92 13 76 100 78 13 5 5 6 19 6 41 5 1 0 0 4 0 5 10 5 5 5 3 4 8 57 4 0 0
100 100 82 100 100 99 52 98 100 97 5 32 100 69 98 100 100 99 100 100 100 98 33 66 51 18 5 5 5 14 5 5 5 5 5 5 60 5 5 1 4 4 23 53 98 48 0 0 0
100 100 81 98 100 100 100 31 5 80 100 96 97 96 87 29 89 100 100 98 66 89 98 99 100 59 22 12 7 10 88 9 52 24 8 11 5 7 4 5 3 5 5 97 5 4 5 5 8
100 100 100 100 100 100 100 18 5 56 60 100 100 100 100 100 49 69 98 61 46 7 6 79 76 65 99 100 90 18 100 100 100 84 14 5 27 10 2 5 5 5 5 25 6 38 17 2 5
96 34 89 100 100 100 100 38 14 44 6 79 100 97 95 98 43 39 93 27 13 82 94 97 100 100 100 64 59 74 100 100 90 100 57 100 80 5 5 3 5 5 5 5 5 38 77 54 54
100 43 98 100 100 100 100 89 10 5 54 100 99 10 49 62 8 53 44 5 79 75 5 34 66 89 35 25 5 64 100 100 100 100 100 100 6 5 0 3 5 5 5 5 5 8 5 68 72
100 97 100 100 100 100 100 100 8 5 82 100 100 100 10 78 100 76 88 9 5 4 4 4 5 10 5 5 31 100 100 100 100 100 53 5 5 1 0 1 5 5 5 5 10 6 5 70 24
13 82 100 100 100 76 48 97 77 33 8 100 100 100 98 100 100 100 100 100 77 33 10 5 21 74 92 44 100 93 91 100 100 100 54 26 13 1 0 0 5 5 5 5 74 5 5 5 28
100 100 100 100 100 99 89 100 100 7 5 13 54 100 91 99 87 59 97 100 100 17 5 4 54 95 100 100 100 100 100 100 100 100 25 6 1 5 0 0 4 5 5 5 98 5 5 0 41
100 98 100 100 76 100 100 100 100 100 64 5 5 5 6 20 100 11 100 100 100 97 100 100 100 100 100 100 100 100 100 100 100 67 13 5 5 4 0 3 5 5 5 99 64 22 14 5 40
100 100 100 100 100 100 100 87 100 100 100 100 77 92 6 5 5 64 96 97 100 100 100 100 100 100 100 100 97 100 100 100 79 5 5 9 4 1 0 14 5 31 38 100 100 100 81 5 15
0 2 77 100 100 100 100 19 95 100 100 100 98 98 96 99 86 35 11 5 76 100 100 100 100 100 100 91 44 78 100 100 20 5 5 5 4 0 4 5 70 68 67 66 100 100 94 99 100
0 0 0 9 100 100 100 19 54 100 100 100 100 71 95 84 87 100 70 4 5 78 100 100 98 100 99 66 100 100 100 96 25 5 4 1 0 4 10 5 100 84 85 100 99 91 71 100 98
0 0 0 0 0 72 94 53 72 100 100 99 12 100 15 46 90 100 63 5 18 60 100 100 100 97 90 100 97 100 43 5 5 4 0 0 5 5 5 36 84 72 78 100 35 89 78 100 100
0 0 0 0 0 0 0 1 99 100 100 100 45 7 5 61 30 36 5 12 71 5 6 15 99 100 100 89 52 62 15 5 5 3 4 5 5 25 48 20 20 33 72 98 72 100 76 100 100
0 0 0 0 0 5 0 0 0 100 100 100 100 88 5 5 12 62 60 13 4 3 14 5 12 61 26 5 5 5 5 3 4 0 5 5 9 35 54 42 18 32 39 73 97 91 46 14 72
4 0 0 0 19 26 1 2 0 2 100 100 100 94 98 74 89 100 100 5 4 1 5 5 5 8 5 5 5 5 0 0 0 5 4 9 27 82 100 94 39 100 56 60 50 5 4 5 98
20 34 6 5 5 7 17 23 0 0 0 22 98 100 100 100 100 98 29 5 33 36 5 5 34 33 5 5 5 0 0 0 0 0 5 6 84 100 100 100 100 100 59 5 4 16 7 39 43
100 75 100 98 77 94 5 50 1 0 0 3 0 2 73 97 100 98 27 27 99 95 24 5 6 5 0 0 0 0 14 6 20 5 42 100 100 100 100 94 100 92 0 0 20 34 15 3 1
100 100 100 100 100 85 83 100 30 1 3 16 0 0 0 0 91 98 100 100 100 100 100 84 5 22 34 5 4 24 78 1 0 33 88 100 100 100 100 99 62 14 62 4 25 0 21 12 0
100 100 100 100 100 100 100 99 89 8 76 12 0 0 0 0 0 7 50 100 100 98 26 5 5 5 20 5 9 6 2 0 15 25 61 76 98 92 94 9 16 30 26 64 7 18 11 2 4
73 99 96 100 75 100 100 97 93 76 79 0 0 0 0 0 0 0 3 85 98 44 3 0 0 2 0 1 0 7 2 15 10 78 20 74 98 94 45 79 37 67 41 37 3 1 0 27 88
81 92 98 95 70 100 100 75 100 62 93 10 5 2 0 5 4 0 0 0 0 0 0 6 11 2 3 5 15 75 99 72 28 85 99 96 41 40 71 31 17 59 36 40 6 0 0 24 22
100 100 75 96 45 99 100 100 100 41 1 56 4 4 4 0 10 0 0 0 0 1 15 26 20 14 68 98 100 100 100 92 100 100 100 78 56 54 33 23 31 28 15 3 1 26 47 23 92
100 100 100 100 100 52 100 98 100 100 100 36 64 5 9 3 15 0 0 0 8 35 24 34 39 45 100 100 100 100 96 100 100 100 95 13 3 0 3 6 2 0 0 10 41 24 45 100 100

GFSSGP_prec_cloud_036.txt.gz
Cloud_Cover
4 2 5 5 4 0 5 45 5 5 5 5 58 57 60 100 100 100 100 100 100 100 100 100 100 100 100 22 6 43 5 2 5 5 0 5 0 0 0 0 0 0 0 0 0 0 5 8 100
100 56 2 5 5 6 50 21 59 11 5 1 56 35 40 89 100 100 100 100 100 100 100 100 100 100 76 93 100 18 5 4 53 100 97 4 4 0 3 0 2 3 0 0 5 5 5 26 0
86 100 54 5 36 100 100 44 31 56 7 84 6 34 8 89 100 100 100 100 100 100 100 100 62 74 100 90 75 100 13 6 52 100 5 4 3 5 0 2 5 5 4 8 14 12 5 0 0
100 100 98 84 44 100 100 100 74 94 9 100 5 5 71 60 55 100 100 100 100 100 100 100 98 60 5 10 98 99 80 47 6 49 0 0 0 1 5 5 5 5 4 72 61 90 0 0 2
100 100 99 100 95 100 100 68 99 98 100 100 70 5 5 5 2 83 100 100 100 98 98 25 96 9 5 20 99 100 100 14 9 3 0 1 0 0 1 5 38 5 4 64 95 22 0 0 0
100 100 86 100 100 100 98 89 100 100 100 97 100 94 62 5 9 36 40 100 94 42 100 98 5 30 77 100 100 94 50 61 73 8 4 4 3 3 4 5 2 0 5 66 38 0 2 0 0
100 100 63 49 100 100 100 48 98 52 100 100 100 100 100 77 4 77 85 73 100 100 100 100 100 100 69 5 7 23 100 100 100 47 5 5 5 5 5 5 33 6 5 5 2 2 5 5 5
100 100 66 18 100 100 100 98 55 83 100 100 100 100 100 100 100 78 100 37 5 18 100 100 100 100 98 36 6 6 40 96 100 67 15 5 5 5 100 86 3 1 5 5 2 3 5 1 3
100 96 100 100 100 100 100 100 100 71 100 100 100 100 100 100 100 98 100 6 4 92 83 87 100 99 100 100 56 41 87 97 7 5 5 15 100 99 84 5 3 4 16 4 1 1 5 2 3
100 15 42 100 100 100 100 100 100 18 45 100 99 44 81 10 88 100 100 38 33 29 43 5 66 5 9 6 44 10 7 52 5 5 14 100 100 94 5 6 79 95 22 5 5 5 5 5 0
100 7 100 100 100 100 100 100 86 4 21 100 100 99 20 13 34 100 100 88 91 23 36 87 22 14 82 5 100 95 9 5 5 8 33 100 100 99 94 51 41 51 5 0 5 5 5 5 19
100 100 100 100 100 100 98 100 57 13 4 48 76 99 100 95 43 20 90 97 100 100 100 100 88 30 18 5 5 5 5 64 5 94 100 100 82 5 12 94 98 6 5 0 5 5 5 5 5
26 72 100 100 100 100 60 13 17 54 100 85 24 98 98 59 45 49 99 100 87 29 49 19 13 100 96 5 44 90 16 81 100 100 100 100 100 86 86 6 34 5 0 2 5 63 38 58 7
99 42 99 77 100 100 93 96 100 13 98 100 100 100 96 96 54 35 76 100 98 100 100 90 43 72 100 5 5 89 100 100 100 100 100 100 100 16 5 5 5 3 0 0 84 22 100 99 100
93 19 30 100 42 100 100 100 100 99 100 58 5 45 100 98 76 88 100 100 100 100 100 100 93 2 75 97 72 95 100 100 100 100 88 91 31 5 90 100 6 1 0 5 6 97 46 100 96
0 0 0 92 100 100 100 100 100 100 100 100 98 97 100 26 64 98 95 64 83 100 100 97 100 94 100 100 100 100 100 100 100 100 86 5 72 84 42 5 3 0 5 8 74 62 94 22 17
0 0 0 18 41 100 100 46 61 100 100 100 94 77 84 100 53 24 5 5 5 29 94 100 100 8 37 100 100 100 100 100 100 100 6 5 37 17 5 3 0 0 2 90 75 96 38 99 83
0 0 0 0 88 100 100 75 5 100 100 95 100 99 100 49 16 60 47 52 5 3 14 100 51 84 5 6 100 100 100 100 100 100 15 5 5 6 5 0 0 0 0 36 63 96 92 63 98
0 0 0 0 1 100 100 21 14 100 100 100 100 100 100 19 93 100 92 100 48 5 82 100 96 31 5 5 13 80 98 100 100 100 41 5 5 5 0 0 0 0 0 4 78 74 100 100 38
0 0 0 0 0 0 0 0 0 57 100 100 100 40 5 64 95 98 100 100 83 28 100 100 100 91 12 5 85 39 8 9 6 5 5 5 4 3 0 0 4 1 0 5 23 96 100 72 96
3 2 0 0 0 0 0 0 0 0 5 100 100 100 69 6 43 65 31 79 39 11 67 33 100 100 100 100 24 40 5 5 5 5 5 5 0 0 5 5 4 5 6 4 5 5 13 5 19
5 7 62 5 1 0 0 1 0 0 0 7 72 100 100 100 14 99 63 81 77 40 5 5 10 52 79 5 5 5 5 5 5 5 5 0 0 17 67 1 0 7 38 17 2 13 31 5 11
98 100 66 48 35 45 0 0 0 0 0 0 0 0 63 100 100 84 62 100 82 4 0 1 5 5 6 5 6 5 87 5 5 5 0 0 21 93 52 77 11 4 99 32 94 38 4 2 0
80 62 76 98 71 91 0 42 0 0 0 0 40 88 6 0 19 100 100 100 5 7 18 5 4 5 5 4 5 2 5 0 1 0 5 5 10 1 100 100 100 98 100 92 29 2 0 11 33
16 48 100 100 100 32 1 92 1 0 0 2 17 2 5 2 0 0 95 100 61 17 5 5 33 5 91 91 69 98 31 0 0 0 0 2 0 58 100 100 100 100 100 20 0 16 14 31 3
71 66 97 100 100 96 98 100 0 1 4 5 5 20 0 0 0 0 0 26 100 100 99 100 82 99 100 100 86 6 4 0 0 0 0 0 26 100 100 100 100 100 0 3 31 28 3 0 0
99 84 66 75 100 8 0 0 0 0 0 1 0 39 52 1 0 0 0 0 0 77 98 100 100 100 100 100 9 14 1 0 0 0 0 5 67 64 100 47 3 31 4 28 16 0 0 0 0
79 52 8 94 85 33 8 16 87 0 11 0 20 98 24 0 0 0 0 0 0 0 0 0 0 20 59 83 72 7 0 0 2 0 0 0 0 4 25 40 7 9 3 0 0 0 0 0 0
71 86 99 71 98 99 100 5 98 100 47 83 98 99 65 0 0 4 0 1 0 0 0 0 0 0 57 62 26 13 16 16 0 0 68 19 18 29 2 17 6 10 18 0 0 0 0 0 3
100 96 100 100 94 28 7 5 100 100 93 100 100 100 74 4 2 42 2 0 0 0 0 43 32 97 100 100 100 95 100 96 56 74 100 100 26 5 2 4 4 0 0 0 0 0 41 32 92

GFSSGP_prec_cloud_042.txt.gz
Cloud_Cover
6 49 13 72 97 81 38 97 19 16 4 0 0 0 3 3 7 99 5 74 93 81 100 100 100 100 100 100 100 100 100 100 39 93 31 86 42 63 100 20 10 99 47 5 4 5 5 5 5
33 47 79 89 100 100 99 11 77 5 0 0 0 5 4 4 52 26 24 85 65 40 100 100 100 100 100 100 100 100 100 95 83 100 100 100 100 100 100 74 77 77 93 14 5 0 6 57 35
29 30 25 94 100 100 100 100 5 0 0 0 0 1 0 0 3 3 11 75 52 10 88 100 100 100 100 100 100 100 100 100 100 100 100 100 100 100 100 100 100 100 94 100 61 7 68 100 100
99 90 61 57 100 100 100 100 99 8 1 0 0 2 5 4 3 5 29 98 0 4 2 95 100 100 18 100 100 99 100 100 100 100 100 100 100 100 100 100 100 93 100 35 11 21 34 79 20
100 95 96 83 100 100 100 98 99 5 2 5 4 3 54 5 52 100 100 44 30 14 0 5 62 100 16 59 100 93 34 91 100 100 100 100 100 100 100 100 100 6 5 5 5 55 5 5 6
100 95 29 100 100 100 100 100 26 2 0 4 40 92 20 4 33 100 100 100 100 100 52 63 100 100 5 5 59 81 100 100 100 100 100 100 100 100 100 100 100 78 5 39 15 16 8 5 30
100 97 92 100 100 100 100 100 85 5 5 23 67 96 59 0 24 100 100 100 100 100 100 65 99 74 21 100 100 70 47 100 100 100 100 100 100 100 100 35 37 72 54 8 83 5 5 25 100
100 98 100 100 100 100 100 100 100 56 61 100 96 77 92 86 56 41 69 8 100 100 100 40 73 68 100 86 39 5 5 5 35 53 95 65 29 5 6 5 5 5 5 18 78 5 7 100 14
100 38 100 100 100 100 100 100 99 20 95 100 92 100 97 100 84 96 56 97 94 97 100 72 25 5 5 42 21 4 5 5 8 66 20 5 5 5 15 5 5 5 5 11 22 24 59 68 5
100 100 100 100 100 100 100 100 100 5 20 86 54 94 90 100 92 100 65 54 52 100 46 5 5 5 26 100 22 22 13 11 66 100 19 5 16 76 100 48 5 15 93 100 99 95 100 11 9
100 99 100 100 100 100 100 100 100 9 74 60 55 27 30 83 41 59 84 59 100 100 100 99 98 41 100 100 96 72 98 100 18 67 5 23 11 24 100 20 94 49 95 96 100 81 64 3 26
100 100 100 100 100 100 100 100 100 99 100 76 30 100 27 79 97 98 73 73 100 100 98 100 100 100 100 100 100 100 100 100 100 99 37 34 52 91 93 33 100 92 5 100 100 97 20 20 13
100 100 100 100 100 100 100 100 100 100 100 81 100 100 100 100 100 41 94 66 100 100 100 100 100 100 100 100 100 100 100 100 100 100 84 22 67 58 100 100 100 56 79 100 94 14 9 9 6
100 100 100 100 100 100 100 100 100 100 100 100 100 100 100 78 100 95 80 100 90 100 100 100 100 100 100 100 100 100 100 100 100 100 48 93 100 100 92 100 100 99 64 17 0 0 0 0 26
100 100 88 100 100 100 100 100 100 100 100 100 100 100 63 77 81 100 100 100 100 100 100 100 100 100 100 100 100 100 100 100 100 100 100 100 100 92 100 100 64 7 5 0 0 0 0 0 9
84 11 46 100 100 100 100 100 100 100 100 100 100 100 100 100 85 48 50 87 95 49 77 100 100 100 100 100 100 100 100 100 100 100 100 100 95 5 7 30 5 5 5 4 0 0 0 0 3
0 0 0 77 72 21 97 97 100 100 100 100 84 84 100 100 100 95 98 81 79 100 100 100 100 100 100 100 100 100 100 93 98 100 100 100 24 5 64 34 5 5 4 5 0 0 0 0 0
0 0 0 0 0 0 0 24 100 100 61 78 99 76 87 100 100 88 100 99 52 98 42 69 100 93 100 100 100 100 100 100 100 100 100 29 26 5 64 99 66 5 5 0 0 0 0 0 0
0 0 0 0 0 0 0 0 0 46 95 100 100 100 100 100 100 100 100 100 85 29 53 1 4 0 5 57 100 100 100 62 96 74 97 15 8 5 90 100 93 5 3 3 0 0 0 0 2
0 0 0 0 0 0 0 0 0 0 0 0 39 93 100 100 100 100 100 100 98 39 18 7 2 0 0 4 67 100 100 16 33 89 10 1 5 12 39 5 6 4 5 0 0 0 0 0 1
0 0 0 0 0 0 0 0 0 0 0 0 0 0 8 66 100 100 100 100 100 99 100 92 96 62 56 9 13 50 60 7 44 86 39 97 18 5 0 0 3 5 5 0 5 0 12 29 46
0 0 0 2 0 0 0 0 0 0 0 0 0 0 0 0 0 0 10 100 99 36 93 56 98 100 100 89 83 100 100 40 90 96 100 100 100 14 0 5 5 5 7 5 5 10 82 99 100
0 0 0 0 0 4 0 4 0 0 0 0 0 0 0 0 0 0 0 0 4 66 35 6 4 74 100 86 100 100 100 100 99 100 100 99 100 7 4 5 5 5 100 47 37 53 100 100 100
0 0 0 0 0 4 0 27 0 0 0 0 0 0 0 0 0 0 0 0 0 0 4 4 0 21 100 100 100 100 100 93 3 1 3 5 13 19 4 22 47 65 100 98 66 28 84 100 100
0 5 4 1 0 0 0 26 0 0 0 0 0 0 0 0 0 0 0 0 0 0 0 0 4 20 53 100 100 100 17 3 0 5 14 7 19 18 70 67 42 100 100 100 79 20 100 100 100
0 0 90 95 30 71 29 1 0 0 0 0 0 0 0 0 0 0 0 0 0 0 0 0 0 100 72 7 99 91 5 3 5 13 11 2 3 11 8 46 100 100 37 6 1 100 100 100 98
0 1 99 94 28 100 5 0 0 0 0 0 0 0 0 0 0 0 0 0 0 0 0 0 0 0 99 98 99 5 5 6 61 100 70 13 20 17 100 100 100 18 1 100 100 100 88 13 55
100 17 4 36 100 76 5 0 0 0 0 0 0 0 0 0 0 0 0 0 0 0 0 0 0 0 0 2 1 0 0 0 3 17 18 34 68 98 100 34 4 0 100 100 100 98 52 100 69
56 21 34 6 51 100 12 4 2 0 0 0 0 0 0 0 0 0 0 0 0 0 0 0 0 0 0 0 0 0 1 16 10 7 7 100 100 100 87 30 0 92 98 56 6 16 98 59 10
100 100 100 79 37 9 32 13 0 3 5 5 0 0 0 0 0 0 0 0 0 0 0 0 0 0 0 0 0 0 20 10 9 11 15 48 62 100 4 1 46 30 0 1 72 93 17 0 0

GFSSGP_prec_cloud_045.txt.gz
Cloud_Cover
100 100 90 35 32 51 44 6 5 1 0 0 16 27 4 22 23 2 2 3 5 5 14 26 58 100 100 100 100 24 88 61 100 100 100 100 100 99 100 88 12 66 7 5 62 46 4 5 0
100 100 100 83 29 79 100 13 3 3 0 0 5 46 5 58 65 50 0 0 4 32 5 32 50 100 100 100 100 100 100 100 100 100 100 100 100 100 100 11 21 73 44 96 100 11 5 4 5
100 64 99 100 85 100 100 98 5 0 0 5 4 1 1 0 20 53 72 0 6 41 5 88 23 86 100 100 100 100 100 36 93 100 94 100 92 100 41 58 100 100 100 96 30 5 5 5 5
99 99 100 100 100 100 100 92 5 5 0 0 0 0 4 0 0 2 96 24 5 64 31 37 5 6 40 100 100 87 99 26 5 5 82 100 100 100 100 100 100 100 12 32 28 5 3 5 28
100 97 88 100 100 100 100 100 19 5 5 2 0 0 0 0 0 0 16 63 5 36 94 100 100 100 100 99 100 100 98 6 33 100 100 100 100 100 100 100 99 46 34 55 89 5 5 5 5
100 87 100 100 100 100 100 100 70 10 3 3 3 0 0 1 1 5 5 7 42 96 100 100 100 100 100 100 98 100 100 59 100 88 61 100 99 85 70 15 6 6 5 71 72 5 5 5 0
100 100 100 100 100 100 100 100 100 18 4 0 0 1 5 5 5 5 4 5 5 47 98 100 100 100 100 100 100 100 51 48 100 32 34 5 5 2 5 5 13 64 5 5 94 5 5 10 7
100 100 100 100 100 100 100 100 100 90 6 5 2 6 5 8 5 2 3 35 97 33 8 76 68 79 23 100 100 100 23 12 6 7 17 20 7 5 5 4 5 5 5 5 5 5 5 49 74
100 97 100 100 100 100 100 100 100 100 73 52 5 4 13 69 81 34 63 100 90 75 90 83 72 30 100 100 100 89 28 43 38 74 78 38 45 6 5 5 4 0 3 5 5 5 5 5 32
100 100 100 100 100 100 100 100 100 100 100 78 6 86 12 56 73 97 98 100 100 99 98 100 100 30 41 77 63 41 29 52 79 40 71 53 48 28 5 5 5 2 4 11 100 57 5 39 5
100 100 100 100 100 100 100 100 100 100 100 83 31 5 17 72 83 100 100 100 100 100 100 100 100 55 49 87 100 99 90 100 86 73 32 88 73 55 9 23 59 5 6 26 21 18 8 0 20
100 100 100 100 100 100 100 100 100 100 100 92 88 74 23 5 36 97 98 100 100 98 99 100 100 22 64 80 100 99 100 94 88 24 16 95 100 100 86 22 17 15 7 9 5 20 20 25 14
99 100 100 100 100 100 100 100 100 100 100 100 100 73 26 60 56 67 6 100 100 100 100 99 100 100 100 100 100 100 62 100 100 23 10 60 99 55 79 22 40 17 12 9 14 14 19 23 24
97 100 100 100 100 100 100 100 100 100 100 100 100 100 100 100 100 100 12 52 100 100 100 100 100 98 100 100 99 100 100 100 100 98 54 100 100 100 90 95 35 5 5 5 5 7 9 10 14
89 100 100 100 100 100 100 100 20 100 100 100 100 100 93 24 100 100 86 100 100 96 100 36 100 92 100 99 100 100 100 100 100 98 36 100 100 100 100 64 5 31 5 5 7 6 5 12 8
62 100 100 100 100 100 100 100 100 100 100 100 98 100 41 50 44 96 100 100 95 100 100 100 100 100 100 100 100 100 100 100 100 92 100 100 100 84 5 21 37 6 5 11 13 10 5 5 7
0 9 92 100 100 100 100 100 100 100 100 100 100 99 10 5 5 5 5 4 92 100 100 100 100 100 100 100 100 100 100 100 100 100 100 100 78 97 98 6 91 63 11 36 33 5 4 5 3
0 0 0 61 100 100 23 100 100 100 100 100 100 100 100 66 48 34 5 4 0 6 45 94 100 100 100 100 100 100 100 100 100 100 100 97 100 100 5 40 75 88 19 28 5 5 4 5 5
0 0 0 0 0 0 3 0 5 100 100 100 100 100 100 100 100 100 100 100 37 34 5 5 5 5 19 68 100 100 100 100 100 100 100 100 100 100 94 100 97 100 44 96 30 5 5 32 6
0 0 0 0 0 0 0 0 5 85 100 100 100 100 100 100 100 100 100 100 98 91 15 61 97 55 8 5 65 81 92 100 100 100 100 87 96 86 100 100 100 100 100 100 92 6 50 10 6
0 0 0 0 0 0 0 0 0 10 58 100 100 100 100 100 100 100 100 100 100 14 19 13 11 88 29 40 87 65 58 100 100 91 100 61 96 16 100 100 100 100 100 94 82 10 85 28 77
0 0 0 0 0 0 0 0 0 0 2 44 94 2 12 94 100 100 100 100 100 100 76 5 5 29 25 11 4 5 23 50 100 97 63 58 70 15 100 100 99 53 27 77 13 40 4 14 100
0 0 0 0 0 0 0 0 0 0 0 0 0 0 0 0 4 57 97 100 100 100 85 33 8 56 100 100 100 100 100 100 100 100 28 5 33 100 98 5 5 96 99 100 7 9 5 44 100
0 0 0 0 0 0 0 0 0 0 0 0 0 0 0 0 0 0 0 0 4 9 14 9 6 51 90 100 100 100 100 100 100 100 98 40 18 100 24 20 97 100 25 9 5 30 92 100 100
0 0 1 2 0 0 0 19 0 0 0 0 0 0 0 0 0 0 0 0 0 0 0 0 0 2 0 0 5 21 97 100 100 100 81 42 93 92 59 99 48 11 5 21 70 51 100 100 97
0 0 0 5 5 0 0 1 0 0 0 0 0 0 0 0 0 0 0 0 0 0 0 0 0 0 0 0 0 5 6 42 56 10 36 100 100 97 96 100 11 6 33 84 17 47 100 100 100
0 0 29 50 5 52 1 0 0 0 0 0 0 0 0 0 0 0 0 0 0 0 0 0 0 0 0 0 0 0 5 1 5 2 0 5 3 21 82 19 8 5 90 57 5 100 100 100 100
4 7 77 99 89 98 2 0 0 0 0 0 0 0 0 0 0 0 0 0 0 0 0 0 0 0 0 0 0 0 0 4 5 5 1 5 23 12 23 83 5 5 73 78 99 100 100 55 25
33 49 10 70 100 100 48 2 0 0 1 5 2 0 0 0 0 0 0 0 0 0 0 0 0 0 0 0 0 0 0 0 3 56 34 14 13 23 4 0 0 3 4 51 99 100 100 92 100
96 100 100 100 30 30 94 17 0 0 91 5 0 0 0 0 0 0 0 0 0 0 0 0 0 0 0 0 0 0 0 0 9 21 79 100 47 5 0 29 99 58 1 87 100 62 42 91 39

GFSSGP_prec_cloud_048.txt.gz
Cloud_Cover
100 100 100 84 100 100 100 100 7 0 3 4 37 5 3 0 2 0 0 0 1 83 74 46 25 20 1 0 5 100 55 36 82 86 82 99 34 77 28 98 94 100 11 74 8 5 0 0 0
100 100 100 100 42 100 100 70 10 0 2 2 5 5 5 2 5 0 0 0 5 29 69 33 45 4 23 5 1 92 14 57 73 100 46 32 9 98 99 35 96 100 100 5 2 0 0 0 0
100 100 100 100 100 100 100 91 5 0 0 0 2 5 62 2 60 20 0 0 0 20 90 22 38 0 4 5 5 5 40 58 80 60 64 34 98 100 100 100 100 95 20 5 1 0 0 3 5
100 100 100 100 100 100 100 86 5 5 0 0 5 59 72 46 28 99 61 1 0 32 90 46 34 5 4 4 20 100 66 39 5 5 59 35 82 5 6 3 5 5 0 0 0 0 0 0 1
100 100 100 100 100 100 100 100 47 5 0 0 4 6 55 18 11 5 63 21 0 5 5 16 34 5 83 66 100 100 100 100 100 78 4 5 13 6 5 3 5 5 5 5 0 0 5 5 5
100 100 100 100 100 100 100 100 100 45 5 0 5 1 5 5 5 5 83 97 16 8 2 12 17 37 76 100 100 100 100 79 78 34 42 5 1 2 28 14 5 5 5 5 4 1 2 0 4
97 100 100 100 100 100 100 100 100 95 11 2 2 1 2 4 1 45 5 36 100 92 25 3 15 30 8 90 83 54 100 28 5 68 51 37 5 7 5 8 2 2 0 1 0 5 5 4 0
52 62 100 100 100 100 100 100 100 100 100 27 0 0 2 5 3 5 6 36 7 14 6 5 9 8 16 90 100 98 49 16 85 100 8 83 5 5 5 1 0 0 0 2 5 2 3 0 0
80 48 52 100 100 100 100 100 100 100 100 19 5 22 6 0 2 5 53 26 84 20 5 5 27 90 74 100 100 100 100 55 37 28 15 94 52 21 5 6 2 5 0 5 1 3 3 0 4
100 40 59 100 100 100 100 100 100 100 100 14 28 45 22 5 4 8 70 87 78 100 49 12 38 100 100 100 100 100 100 76 100 97 90 100 99 45 5 4 4 5 0 3 3 5 5 0 0
100 54 100 100 100 100 100 100 100 100 100 95 29 12 89 100 79 5 7 99 93 100 98 99 100 100 100 100 100 100 100 100 100 99 100 100 100 34 33 23 24 5 5 8 34 3 5 5 2
100 100 100 100 100 100 100 100 100 100 100 100 98 99 98 65 48 64 100 100 100 100 98 76 100 100 99 99 98 100 100 100 99 97 91 100 93 40 41 27 96 13 100 89 5 4 5 5 5
7 100 100 100 100 100 100 100 100 100 100 100 100 23 92 80 99 100 100 94 100 100 90 97 100 99 95 100 98 98 100 100 100 100 100 58 65 27 35 18 59 66 100 56 5 8 5 5 10
100 97 100 100 100 100 100 100 100 100 100 100 100 96 13 48 99 100 100 100 100 100 100 100 100 100 73 92 100 100 100 100 100 100 100 100 84 89 5 86 78 100 96 82 14 16 5 5 5
0 17 100 100 100 100 100 100 100 100 100 100 100 62 64 7 5 14 6 82 100 100 100 100 100 100 98 86 100 67 100 80 100 100 100 100 73 42 5 58 100 100 99 66 76 5 28 5 5
0 2 100 100 100 100 100 100 100 100 100 100 100 100 9 60 5 44 88 99 100 100 94 100 99 100 100 100 100 84 100 100 100 100 100 100 92 54 28 81 100 100 100 96 5 31 5 3 11
0 0 54 100 100 100 100 100 100 100 100 100 100 94 30 79 44 58 87 100 78 96 34 39 100 100 99 58 100 100 98 96 100 100 100 100 100 95 100 94 100 100 100 20 33 91 8 5 11
0 0 0 1 2 4 100 100 100 100 100 100 100 100 98 18 80 63 29 64 96 91 22 100 100 100 88 100 76 95 100 100 100 100 100 100 100 100 100 90 100 100 95 59 13 16 6 90 30
0 0 0 0 0 0 100 100 100 100 100 100 100 100 100 100 100 100 100 79 28 15 99 100 100 100 100 100 100 100 100 100 100 100 100 100 100 100 78 100 83 100 93 29 40 30 30 26 5
5 0 0 0 0 0 6 99 100 100 100 100 100 100 100 100 100 100 100 100 83 11 5 42 62 40 55 61 100 69 54 66 96 98 100 100 100 85 30 97 71 68 5 5 33 78 48 12 6
4 0 0 0 0 0 0 0 33 48 100 100 100 100 100 100 100 100 100 100 100 73 13 5 4 4 20 5 5 90 100 100 100 100 100 100 24 5 10 6 74 68 5 5 96 10 31 26 46
5 5 0 0 0 0 0 0 0 0 14 100 100 100 100 100 100 100 100 100 100 100 100 47 5 13 85 61 4 5 5 5 39 27 46 8 5 56 25 37 92 7 6 6 94 55 36 54 26
0 0 0 0 0 0 0 0 0 0 0 68 100 100 100 88 62 100 100 100 100 93 96 100 31 56 99 100 86 100 100 99 100 100 86 100 100 39 54 98 84 6 5 72 100 100 66 68 38
0 0 0 0 0 1 0 0 0 0 0 0 12 53 79 100 100 74 78 79 100 99 97 99 100 100 100 63 99 100 100 100 100 100 100 100 74 92 100 100 88 5 40 99 100 100 100 30 34
0 0 0 0 0 0 0 0 0 0 0 0 0 0 0 2 48 5 0 0 0 4 5 2 23 85 66 100 100 100 100 100 100 100 100 100 100 100 93 12 17 24 48 100 100 49 40 24 83
0 0 0 0 0 0 0 0 0 0 0 0 0 0 0 0 0 0 0 0 0 0 0 0 0 0 0 0 9 26 18 83 100 100 89 10 0 0 5 7 23 92 100 92 26 8 6 48 90
0 0 2 0 0 62 0 0 0 0 0 0 0 0 0 0 0 0 0 0 0 0 0 0 0 0 0 0 0 0 0 0 2 5 5 4 1 3 0 11 43 39 31 14 28 78 54 2 97
0 5 5 63 31 5 0 0 0 0 0 0 0 0 0 0 0 0 0 0 0 0 0 0 0 0 0 0 0 0 0 0 0 0 0 0 0 2 10 46 40 50 49 74 26 24 3 19 100
4 5 5 61 99 90 66 0 0 5 4 0 2 1 69 4 0 0 0 0 0 0 0 0 0 0 0 0 0 0 0 0 0 0 0 0 1 5 20 30 84 95 98 22 71 2 60 100 26
0 0 5 90 37 85 100 3 2 24 5 14 5 0 5 6 0 0 0 0 0 0 0 0 0 0 0 0 0 0 0 0 0 0 0 0 3 15 17 66 100 100 100 100 19 2 100 100 100